[[{"header":{"parameterUnit":"m.s-1","parameterCategory":1,"la1":30.2991,"la2":30.254,"lo1":-89.0895,"lo2":-89.0444,"dy":0.0017,"dx":0.0017,"nx":28,"ny":28,"refTime":"2024-03-19T03:00:00:Z","depth":0,"parameterNumber":2,"parameterNumberName":"U-component_of_WINDS"},"data":[0,0,0,0,0,0,0,0,0,0,0,0,0,0,0,0,0,0,0,0,0,0,0,0,0,0,0,0,0,0,0,0,0,0,0,0,0,0,0,0,0,0,0,0,0,0,0,0,0,0,0,0,0,0,0,0,0,0,0.5479,0.5479,0,0.5531,0.5532,0.5533,0.5569,0.5569,0.557,0.557,0.5624,0.5625,0.5626,0,0,0,0,0,0,0,0,0,0,0,0,0,0.5409,0.541,0.5479,0.5479,0.548,0.5531,0.5532,0.5533,0.5569,0.5569,0.557,0.557,0.5624,0.5625,0.5627,0,0,0,0,0,0,0,0,0,0,0,0,0,0.5448,0.541,0.5479,0.5504,0.5507,0.5531,0.5532,0.5533,0.5569,0.5569,0.557,0.557,0.5623,0.5625,0.5627,0.563,0,0,0.5632,0.5633,0,0,0,0,0,0,0,0,0.5446,0.545,0.55,0.5502,0.5506,0.5544,0.5527,0.5565,0.5569,0.5545,0.557,0.557,0.5597,0.5601,0.561,0.5632,0.5634,0.5632,0.5633,0.5634,0.5635,0,0,0,0,0,0,0,0.5443,0.5448,0.55,0.55,0.5504,0.5513,0.5519,0.5535,0.5568,0.5547,0.555,0.5556,0.5599,0.5608,0.5612,0.5635,0.5632,0.5634,0.5635,0.5636,0.5661,0.566,0,0,0,0,0,0,0.5436,0.5446,0.5498,0.5501,0.5476,0.5514,0.5521,0.5531,0.5568,0.5574,0.5556,0.5557,0.5605,0.561,0.5614,0.5618,0.5634,0.5636,0.5637,0.5661,0.5661,0.566,0,0,0,0,0,0,0.5434,0.544,0.5496,0.5474,0.5482,0.5515,0.5526,0.5532,0.5542,0.5574,0.5581,0.5559,0.5606,0.5611,0.5625,0.5621,0.5637,0.5638,0.5662,0.5661,0.566,0.5628,0,0,0,0,0,0,0.5432,0.544,0.5441,0.5474,0.5483,0.5506,0.5526,0.5533,0.5545,0.5548,0.5579,0.5585,0.5606,0.5622,0.5627,0.5623,0.564,0.5662,0.5661,0.5661,0.563,0.5627,0.5624,0,0,0,0,0,0.543,0.5431,0.5441,0.5447,0.5486,0.5506,0.5511,0.5536,0.5544,0.5546,0.5567,0.5584,0.5621,0.5623,0.5629,0.5626,0.5662,0.5662,0.5661,0.5631,0.5627,0.5624,0,0,0,0,0,0,0.5397,0.5435,0.5448,0.5459,0.5479,0.5512,0.5515,0.5531,0.5549,0.5551,0.558,0.5587,0.5598,0.5614,0.5616,0.563,0.5644,0.5644,0.5619,0.5616,0.5613,0.5608,0.5641,0,0,0,0,0,0.5391,0.5404,0.5437,0.5444,0.5453,0.5482,0.5492,0.5509,0.5531,0.5539,0.5561,0.5582,0.5598,0.5608,0.5625,0.5632,0.5639,0.5633,0.563,0.5627,0.5627,0.5631,0.5628,0.5657,0.5657,0.5657,0,0,0.5379,0.5401,0.5408,0.5438,0.5455,0.5468,0.5489,0.5502,0.5511,0.5542,0.5555,0.5572,0.5597,0.5607,0.5613,0.5621,0.562,0.5626,0.5624,0.5625,0.563,0.5627,0.5624,0.5656,0.5657,0.5657,0,0,0.5363,0.5382,0.5389,0.5406,0.5432,0.5451,0.5452,0.5483,0.5495,0.5509,0.5532,0.5543,0.5571,0.5587,0.5599,0.5587,0.5604,0.5592,0.5576,0.558,0.5577,0.5575,0.557,0.5568,0.5592,0.5592,0.5592,0,0.5345,0.5365,0.5391,0.5402,0.5414,0.5441,0.5448,0.5463,0.5493,0.55,0.5509,0.5542,0.5561,0.5575,0.5572,0.5581,0.5583,0.5588,0.5576,0.5574,0.5573,0.5568,0.5566,0.559,0.559,0.559,0.5591,0,0.534,0.5354,0.5357,0.5384,0.5396,0.5405,0.5432,0.5442,0.5457,0.5475,0.5489,0.5512,0.5533,0.5538,0.5554,0.5553,0.5557,0.557,0.5584,0.5568,0.5564,0.5562,0.5588,0.5588,0.5589,0.5589,0,0,0.5306,0.5347,0.5347,0.5359,0.5389,0.54,0.541,0.543,0.5437,0.5456,0.5465,0.5486,0.5498,0.5511,0.5529,0.5532,0.552,0.5545,0.5546,0.5538,0.552,0.5509,0.5507,0.5531,0.5531,0.5531,0.5517,0,0.5294,0.5313,0.5336,0.5347,0.5359,0.5384,0.5393,0.5411,0.5428,0.5441,0.5459,0.5474,0.5489,0.5497,0.5501,0.5521,0.5517,0.5522,0.5538,0.5539,0.553,0.5505,0.5494,0.548,0.5516,0.5516,0.5516,0,0.5282,0.53,0.5311,0.5339,0.5345,0.5352,0.5372,0.5384,0.5405,0.5417,0.5431,0.545,0.5461,0.5474,0.5488,0.5491,0.5499,0.551,0.551,0.5512,0.5525,0.5505,0.5476,0.5474,0.5514,0.5514,0.5514,0,0.5254,0.5281,0.5291,0.5301,0.5333,0.5337,0.5351,0.5373,0.5384,0.5401,0.5408,0.5426,0.5436,0.5449,0.5472,0.5479,0.5484,0.5499,0.5493,0.5492,0.5492,0.5492,0.5463,0.5499,0.5499,0.5499,0.5499,0,0.5238,0.5243,0.5278,0.5284,0.5291,0.5318,0.5324,0.534,0.5359,0.5368,0.5392,0.54,0.543,0.5441,0.546,0.5468,0.5473,0.5482,0.5486,0.5479,0.5478,0.5484,0.5485,0.5498,0.5499,0.5499,0.5499,0,0.5207,0.5231,0.5243,0.5273,0.5281,0.5284,0.531,0.5316,0.5334,0.5345,0.5349,0.5377,0.5392,0.5416,0.5438,0.545,0.5454,0.5463,0.5447,0.5449,0.5442,0.5442,0.5416,0.5413,0.5451,0.5451,0.545,0,0.5195,0.52,0.523,0.5237,0.525,0.5263,0.5273,0.5299,0.5308,0.5332,0.5336,0.5352,0.5366,0.5388,0.541,0.5426,0.5435,0.5424,0.5437,0.5429,0.5433,0.5432,0.5432,0.5421,0.5421,0.542,0.542,0,0.5169,0.5181,0.5195,0.5212,0.5224,0.5239,0.5255,0.526,0.529,0.5299,0.5314,0.5325,0.5346,0.5362,0.5381,0.5395,0.5412,0.5416,0.5415,0.5407,0.5397,0.5401,0.5438,0.5416,0.5416,0.5417,0.5417,0.5417,0.5147,0.5152,0.5173,0.5188,0.5203,0.5217,0.5224,0.5243,0.5255,0.5275,0.5289,0.5303,0.5323,0.535,0.5363,0.5374,0.5381,0.5381,0.538,0.5379,0.5376,0.5396,0.5377,0.5378,0.5378,0.5378,0.5378,0,0.5122,0.5137,0.515,0.5171,0.5182,0.5197,0.5216,0.5224,0.5235,0.5253,0.5266,0.5282,0.5297,0.532,0.5336,0.534,0.5348,0.5343,0.5343,0.5345,0.5369,0.5367,0.5336,0.5336,0.5336,0.5336,0.5336,0.5336,0.511,0.5119,0.5132,0.5148,0.5163,0.5176,0.5185,0.5199,0.5212,0.5229,0.5242,0.5256,0.5276,0.5293,0.5307,0.5313,0.5317,0.531,0.5318,0.534,0.5344,0.5347,0.5346,0.5311,0.5311,0.5294,0.5294,0.5293]},{"header":{"parameterUnit":"m.s-1","parameterCategory":1,"la1":30.2991,"la2":30.254,"lo1":-89.0895,"lo2":-89.0444,"dy":0.0017,"dx":0.0017,"nx":28,"ny":28,"refTime":"2024-03-19T03:00:00:Z","depth":0,"parameterNumber":3,"parameterNumberName":"V-component_of_WINDS"},"data":[0,0,0,0,0,0,0,0,0,0,0,0,0,0,0,0,0,0,0,0,0,0,0,0,0,0,0,0,0,0,0,0,0,0,0,0,0,0,0,0,0,0,0,0,0,0,0,0,0,0,0,0,0,0,0,0,0,0,2.7574,2.7574,0,2.7577,2.7577,2.7577,2.7598,2.7598,2.7599,2.7599,2.76,2.76,2.7599,0,0,0,0,0,0,0,0,0,0,0,0,0,2.7585,2.7584,2.7574,2.7574,2.7574,2.7577,2.7577,2.7577,2.7598,2.7598,2.7599,2.7599,2.76,2.76,2.7599,0,0,0,0,0,0,0,0,0,0,0,0,0,2.7583,2.7584,2.7574,2.7585,2.7586,2.7577,2.7577,2.7577,2.7597,2.7598,2.7599,2.76,2.76,2.76,2.7599,2.758,0,0,2.7597,2.7597,0,0,0,0,0,0,0,0,2.7583,2.7583,2.7583,2.7584,2.7585,2.7588,2.7581,2.7578,2.7597,2.7593,2.7599,2.76,2.7595,2.7595,2.7594,2.758,2.758,2.7597,2.7597,2.7596,2.7596,0,0,0,0,0,0,0,2.7583,2.7583,2.7575,2.7583,2.7585,2.7589,2.759,2.7581,2.759,2.7593,2.7595,2.7595,2.7596,2.7595,2.7594,2.758,2.7597,2.7597,2.7596,2.7596,2.7549,2.7548,0,0,0,0,0,0,2.7582,2.7583,2.7575,2.7576,2.7586,2.7588,2.7589,2.7586,2.759,2.7591,2.7594,2.7596,2.7595,2.7595,2.7594,2.7571,2.7596,2.7596,2.7595,2.755,2.7549,2.7548,0,0,0,0,0,0,2.7582,2.7581,2.7575,2.758,2.7579,2.7587,2.7584,2.7586,2.7585,2.7591,2.7592,2.7591,2.7596,2.7595,2.7583,2.7571,2.7595,2.7595,2.7551,2.755,2.7549,2.7525,0,0,0,0,0,0,2.7583,2.7581,2.7574,2.7579,2.7579,2.7565,2.7583,2.7585,2.7584,2.7586,2.7588,2.7589,2.7596,2.7584,2.7583,2.7571,2.7594,2.7552,2.7551,2.7549,2.7527,2.7523,2.752,0,0,0,0,0,2.7583,2.7568,2.7574,2.7573,2.7571,2.7564,2.7564,2.7573,2.7583,2.7575,2.7579,2.7589,2.7573,2.7583,2.7581,2.7569,2.7553,2.7551,2.7549,2.7529,2.7524,2.752,0,0,0,0,0,0,2.7561,2.7568,2.7576,2.7562,2.7562,2.7568,2.7559,2.7568,2.7565,2.7567,2.7577,2.7578,2.7564,2.7566,2.7576,2.755,2.7565,2.7562,2.755,2.7545,2.7542,2.7541,2.7594,0,0,0,0,0,2.7554,2.7549,2.7556,2.7543,2.7543,2.7551,2.7548,2.7555,2.7556,2.7556,2.7559,2.7558,2.7553,2.755,2.7545,2.7528,2.7528,2.7519,2.7515,2.7512,2.751,2.75,2.7495,2.7542,2.7542,2.7542,0,0,2.7541,2.7544,2.754,2.7538,2.7539,2.7533,2.7551,2.7543,2.7538,2.7554,2.7543,2.7545,2.7546,2.7531,2.7524,2.7531,2.7497,2.751,2.7507,2.7507,2.7497,2.7493,2.7489,2.7541,2.7541,2.7541,0,0,2.7512,2.7515,2.7504,2.7505,2.7507,2.7512,2.7509,2.7514,2.7516,2.7505,2.7517,2.7511,2.7502,2.7501,2.75,2.7471,2.748,2.7469,2.7451,2.7441,2.7437,2.7434,2.7423,2.7419,2.7467,2.7467,2.7467,0,2.7495,2.7486,2.7497,2.7489,2.7487,2.7502,2.7491,2.7491,2.7491,2.7489,2.7497,2.7486,2.7487,2.7472,2.7465,2.7464,2.746,2.7469,2.7437,2.7434,2.7431,2.742,2.7416,2.7466,2.7466,2.7466,2.7466,0,2.7465,2.7458,2.7449,2.7449,2.7447,2.7437,2.7445,2.7441,2.7448,2.7452,2.7441,2.7443,2.7439,2.7436,2.7442,2.7421,2.7425,2.7435,2.745,2.7425,2.7415,2.7411,2.7464,2.7464,2.7465,2.7465,0,0,2.7422,2.7428,2.7425,2.7424,2.7427,2.7422,2.7413,2.7409,2.7405,2.7405,2.7396,2.7388,2.7397,2.7396,2.7402,2.7394,2.737,2.7404,2.7405,2.7397,2.7345,2.7337,2.7332,2.7376,2.7375,2.7374,2.7344,0,2.7394,2.7379,2.7388,2.7371,2.7365,2.7379,2.737,2.7371,2.7374,2.7369,2.7373,2.7367,2.738,2.7379,2.7371,2.7374,2.7359,2.7377,2.7367,2.7366,2.7365,2.7327,2.7319,2.729,2.7341,2.734,2.734,0,2.736,2.7358,2.734,2.7344,2.7342,2.7334,2.7331,2.7326,2.7327,2.733,2.7328,2.7337,2.7327,2.7342,2.7327,2.7339,2.7336,2.7337,2.7336,2.7334,2.7351,2.7324,2.7282,2.7277,2.7334,2.7334,2.7335,0,2.7329,2.7323,2.7311,2.7311,2.7315,2.7309,2.731,2.7312,2.7309,2.7306,2.7304,2.73,2.7298,2.7294,2.7301,2.7312,2.7285,2.7301,2.7287,2.7287,2.728,2.728,2.7236,2.7279,2.7279,2.728,2.728,0,2.7297,2.7285,2.7297,2.729,2.7277,2.7288,2.7274,2.7277,2.7278,2.7271,2.7283,2.7276,2.7286,2.7279,2.7285,2.7272,2.7271,2.7272,2.7274,2.7271,2.727,2.7268,2.727,2.7278,2.7279,2.7279,2.7279,0,2.726,2.7268,2.7256,2.7261,2.7262,2.7252,2.7256,2.7249,2.7254,2.7245,2.7243,2.725,2.7243,2.725,2.7243,2.7247,2.7229,2.7234,2.7229,2.723,2.7215,2.7215,2.7166,2.716,2.7208,2.7208,2.7208,0,2.7238,2.723,2.7234,2.7231,2.7231,2.7225,2.7223,2.7233,2.7229,2.7229,2.7221,2.7216,2.7212,2.72,2.7203,2.7198,2.7202,2.7185,2.7201,2.7198,2.7201,2.7201,2.7199,2.7182,2.7181,2.7181,2.718,0,2.7199,2.7203,2.7199,2.7196,2.7193,2.7191,2.719,2.7186,2.7196,2.7191,2.7185,2.7181,2.7175,2.7168,2.7164,2.7165,2.7174,2.7175,2.7171,2.7168,2.7165,2.7165,2.7219,2.7176,2.7177,2.7177,2.7177,2.7177,2.7168,2.7161,2.7163,2.7158,2.7158,2.7157,2.715,2.7154,2.7149,2.7145,2.7151,2.7142,2.7142,2.7138,2.7137,2.713,2.7137,2.7132,2.713,2.7129,2.7126,2.7167,2.7129,2.713,2.713,2.713,2.713,0,2.7128,2.713,2.7126,2.7124,2.712,2.713,2.7129,2.7124,2.7117,2.7116,2.7112,2.7104,2.7098,2.7101,2.7096,2.7089,2.7093,2.7087,2.7087,2.7087,2.7121,2.7124,2.7084,2.7084,2.7084,2.7084,2.7084,2.7084,2.7107,2.7095,2.7099,2.7088,2.7089,2.7082,2.708,2.7079,2.7078,2.7069,2.7064,2.7067,2.7068,2.7062,2.7057,2.7058,2.7055,2.7047,2.705,2.708,2.7085,2.7089,2.7092,2.7047,2.7047,2.7017,2.7016,2.7016]}]]